Simultaneous Nadir Overpasses (SNOs) Predictions

Prediction of SNOs between AQUA and METOP-A Satellite Orbit:

Table of predicted SNOs for the next 14.0 days since TLE Epoch: 9/19/2015
Index Date (AQUA) Time (AQUA) Lat,Lon (AQUA) SZA (AQUA ) Date (METOP-A) Time (METOP-A) Lat,Lon (METOP-A) SZA (METOP-A ) Distance(km) Time Diff (sec)
1 09/20/2015 23:26:42 73.92,-177.63 72.96 09/20/2015 23:25:45 73.91,-177.63 72.95 1.64 57
2 09/21/2015 00:16:09 -73.98, -10.12 106.97 09/21/2015 00:16:25 -73.99, -10.11 106.97 0.40 16
3 09/21/2015 01:05:47 74.54, 156.22 73.63 09/21/2015 01:06:54 74.52, 158.58 73.57 70.11 67
4 09/23/2015 19:00:56 73.92,-111.17 74.04 09/23/2015 19:00:05 73.94,-111.16 74.07 2.22 51
5 09/23/2015 19:50:23 -73.98, 56.33 105.89 09/23/2015 19:50:46 -73.97, 56.24 105.90 2.98 23
6 09/26/2015 14:35:10 73.93, -44.75 75.14 09/26/2015 14:34:26 73.91, -44.81 75.13 2.40 44
7 09/26/2015 15:24:37 -73.98, 122.76 104.79 09/26/2015 15:25:06 -73.99, 122.71 104.78 1.71 29
8 09/29/2015 10:09:24 73.95, 21.63 76.26 09/29/2015 10:08:46 73.93, 21.64 76.25 1.82 38
9 09/29/2015 10:58:51 -74.01,-170.85 103.67 09/29/2015 10:59:26 -74.02,-170.83 103.66 1.45 35
10 10/02/2015 05:43:36 73.94, 88.11 77.33 10/02/2015 05:43:05 73.95, 88.09 77.35 1.78 31
11 10/02/2015 06:33:03 -73.99,-104.38 102.60 10/02/2015 06:33:46 -73.99,-104.49 102.60 3.40 43




NCC Satellite Simultaneous Nadir Overpasses (SNOs) Prediction Service
